Vorticity
3 8 8 7 5 5 5 4 4 5 6 7 6 4 0 3 4 4 6 5 4 5 5 5 4 4 3 5 5 8 7 7 9 5 11 5 15 9 8 10 6 8 11
10 3 9 4 3 5 7 1 -3 -5 -4 -2 2 4 6 5 5 5 6 5 6 6 4 5 5 4 4 6 7 6 8 5 6 5 4 4 5 5 1 4 6 5 4
8 10 3 9 8 4 4 6 8 7 9 6 3 3 4 6 7 6 7 7 6 5 4 4 5 6 8 8 6 6 6 11 7 13 5 10 13 8 6 7 5 7 5
8 8 6 7 8 8 8 6 5 6 4 5 7 6 5 5 8 9 8 7 5 4 3 4 5 6 8 4 6 7 10 11 12 7 10 8 10 8 8 8 7 10 8
5 11 2 10 10 8 8 8 7 7 7 7 6 7 10 12 11 9 9 7 5 6 7 7 8 5 4 6 7 7 8 7 7 9 10 23 6 8 10 9 10 7 6
9 5 10 6 8 11 10 9 10 10 9 10 12 13 12 9 8 6 4 7 7 8 9 7 8 9 9 11 11 9 7 8 7 7 11 7 10 10 8 7 9 41 16
11 8 8 13 9 7 9 10 9 10 12 13 11 5 6 3 2 6 8 8 8 9 5 7 12 12 10 8 8 8 10 11 10 9 11 5 12 10 8 10 3 -17 19
27 5 12 9 -1 3 10 8 9 6 3 3 -1 -0 1 6 11 8 7 10 9 4 5 8 9 7 8 8 11 8 11 14 16 9 9 8 8 15 13 10 29 12 24
19 20 -12 -1 8 16 8 -1 -4 -0 -5 3 5 6 8 10 10 9 10 7 4 6 11 10 9 8 13 9 15 16 13 13 2 11 5 9 20 10 15 22 25 20 33
14 19 26 -1 17 18 16 12 10 11 -3 4 14 12 11 11 12 9 6 5 11 11 10 9 13 12 12 14 12 10 9 17 6 10 12 15 7 10 19 26 14 13 15
6 13 13 22 18 16 14 13 12 15 15 12 11 12 13 11 6 6 9 12 10 11 12 15 12 13 22 2 6 11 1 3 7 13 12 5 7 14 18 19 34 22 32
-1 -0 6 9 11 11 9 9 10 11 11 12 13 11 7 7 12 10 11 13 14 16 10 12 12 9 6 11 -2 9 8 3 10 19 9 10 6 12 12 16 17 33 10
21 15 -5 1 10 9 9 13 13 13 13 12 9 8 10 9 9 12 15 15 13 10 14 12 4 0 15 9 9 6 8 10 10 5 8 9 7 11 11 22 23 22 14
9 7 9 7 3 10 12 11 14 13 11 9 11 10 11 10 13 13 13 10 6 9 13 12 12 11 7 5 8 10 13 12 8 11 7 12 8 11 7 20 29 41 29
10 10 9 11 13 11 12 12 11 11 12 11 10 11 9 13 17 6 6 9 6 6 10 10 9 10 6 10 11 13 12 12 13 11 14 4 6 13 7 12 -3 20 22
17 15 13 12 11 11 12 12 11 12 12 11 12 17 16 12 7 6 5 9 12 17 10 10 7 5 9 10 10 8 9 10 8 14 16 10 6 14 11 12 4 11 14
14 15 14 13 14 14 12 12 12 8 12 17 14 12 9 11 11 11 11 14 15 12 9 13 8 12 9 9 9 11 12 16 18 16 15 16 13 16 19 14 15 13 19
8 12 12 12 13 11 11 11 4 5 7 5 8 10 13 11 10 11 13 13 15 17 15 9 10 11 8 11 12 14 15 13 14 11 8 7 8 6 7 6 6 5 4
11 12 13 11 9 11 10 5 7 10 12 11 12 11 8 7 7 10 12 14 12 11 11 10 10 8 12 15 13 14 13 12 9 9 10 8 7 8 6 7 6 6 6
15 13 9 9 10 10 9 8 9 15 15 6 9 8 7 7 6 9 14 12 13 14 10 8 8 10 15 12 13 12 9 9 8 7 7 8 8 7 7 6 6 6 6
4 9 8 12 7 7 5 9 12 15 7 6 6 6 7 7 8 12 12 10 10 8 8 11 12 16 14 14 11 8 9 8 8 8 8 8 9 10 9 7 6 8 9
14 10 8 10 10 7 5 7 10 13 6 4 5 6 6 7 11 8 11 10 8 9 11 9 13 15 12 10 9 8 7 7 9 10 8 8 9 9 7 6 8 9 10
11 8 9 10 11 9 6 6 11 9 7 4 5 5 5 9 9 8 10 8 9 8 8 6 8 15 14 11 9 8 9 9 6 6 6 6 8 8 7 8 9 10 11
9 5 3 10 11 7 5 7 8 10 7 5 5 6 5 6 7 10 11 13 10 8 7 6 5 8 14 13 11 10 7 6 5 6 8 8 9 7 8 9 9 13 7
33 22 11 2 9 8 5 7 7 6 8 7 5 5 5 3 7 6 4 4 5 9 10 8 5 4 6 10 10 8 6 4 7 9 9 9 8 8 9 9 11 10 6
11 19 18 3 7 10 8 7 9 8 7 7 6 6 6 6 4 8 7 3 3 8 7 7 10 7 5 6 7 8 9 9 9 9 8 8 7 8 9 10 10 9 3
Height
5789 5794 5799 5804 5806 5809 5814 5817 5819 5820 5820 5821 5824 5825 5826 5827 5828 5828 5829 5828 5827 5826 5824 5823 5821 5818 5816 5814 5812 5810 5808 5806 5804 5800 5799 5796 5795 5793 5791 5788 5787 5786 5784
5782 5787 5793 5796 5799 5802 5806 5809 5810 5812 5814 5816 5817 5818 5819 5820 5819 5819 5820 5819 5818 5817 5816 5815 5814 5812 5809 5807 5804 5800 5798 5797 5794 5791 5788 5787 5786 5784 5779 5777 5776 5775 5773
5775 5781 5785 5788 5792 5795 5796 5798 5801 5803 5807 5809 5811 5813 5813 5814 5813 5811 5809 5808 5808 5807 5805 5804 5804 5803 5801 5799 5796 5792 5789 5787 5784 5780 5776 5774 5774 5771 5770 5766 5763 5762 5760
5767 5772 5777 5780 5784 5786 5789 5791 5793 5796 5799 5801 5802 5804 5805 5805 5805 5805 5804 5803 5800 5798 5795 5793 5791 5790 5790 5788 5785 5782 5779 5776 5774 5769 5766 5761 5760 5758 5758 5756 5752 5748 5747
5758 5763 5768 5773 5776 5778 5780 5783 5786 5789 5790 5791 5793 5794 5795 5796 5795 5795 5796 5795 5793 5791 5788 5785 5783 5780 5778 5776 5774 5771 5768 5765 5761 5759 5754 5751 5748 5745 5742 5743 5739 5734 5732
5750 5754 5760 5764 5767 5770 5772 5775 5777 5780 5781 5782 5783 5784 5785 5785 5785 5785 5785 5784 5783 5781 5779 5776 5774 5771 5768 5766 5763 5761 5758 5754 5751 5747 5743 5740 5735 5732 5728 5724 5721 5716 5716
5741 5746 5751 5756 5759 5762 5764 5767 5769 5771 5772 5773 5774 5775 5776 5776 5775 5775 5775 5773 5771 5770 5768 5766 5763 5760 5757 5754 5752 5749 5745 5742 5739 5735 5733 5729 5724 5718 5712 5707 5703 5700 5698
5733 5738 5742 5747 5751 5754 5756 5758 5760 5762 5763 5764 5765 5766 5767 5766 5766 5765 5763 5762 5761 5760 5758 5756 5753 5750 5747 5743 5740 5737 5735 5732 5728 5724 5721 5717 5711 5705 5698 5691 5683 5677 5676
5724 5728 5733 5737 5741 5745 5748 5749 5751 5753 5754 5755 5756 5756 5757 5757 5756 5754 5753 5752 5751 5750 5748 5745 5743 5741 5737 5734 5730 5727 5724 5721 5718 5714 5710 5704 5697 5691 5684 5674 5665 5656 5651
5716 5720 5724 5728 5731 5735 5738 5740 5742 5743 5744 5746 5747 5747 5747 5746 5745 5744 5743 5742 5741 5739 5738 5736 5733 5730 5727 5724 5721 5717 5715 5711 5708 5703 5697 5692 5686 5678 5668 5658 5650 5642 5633
5708 5712 5716 5719 5722 5725 5728 5730 5732 5733 5735 5736 5736 5736 5737 5736 5735 5734 5733 5732 5731 5730 5728 5726 5723 5720 5718 5715 5712 5709 5706 5702 5697 5692 5686 5681 5673 5664 5655 5645 5636 5628 5620
5700 5704 5708 5711 5713 5716 5718 5720 5722 5724 5725 5726 5726 5727 5727 5727 5726 5725 5724 5723 5721 5719 5718 5716 5714 5712 5709 5706 5703 5700 5695 5692 5686 5681 5676 5669 5661 5653 5644 5634 5625 5616 5611
5692 5696 5698 5701 5704 5707 5709 5711 5713 5714 5715 5717 5717 5717 5717 5717 5717 5716 5715 5713 5712 5710 5708 5706 5704 5703 5700 5697 5694 5690 5685 5681 5676 5672 5666 5660 5652 5644 5636 5626 5616 5608 5604
5686 5689 5692 5694 5696 5698 5700 5702 5704 5705 5706 5707 5708 5708 5709 5709 5709 5707 5706 5705 5703 5701 5699 5698 5695 5693 5690 5687 5684 5680 5676 5672 5667 5662 5657 5651 5644 5637 5629 5620 5611 5603 5599
5677 5680 5682 5685 5688 5690 5692 5694 5696 5697 5698 5699 5699 5700 5700 5700 5700 5699 5698 5696 5695 5693 5691 5689 5686 5684 5681 5678 5675 5671 5667 5663 5658 5654 5649 5643 5638 5631 5624 5617 5609 5602 5596
5669 5672 5675 5678 5680 5682 5684 5686 5688 5690 5690 5691 5691 5692 5692 5692 5691 5690 5689 5688 5687 5684 5682 5680 5678 5675 5672 5668 5665 5661 5658 5653 5649 5645 5640 5636 5630 5625 5619 5613 5607 5602 5596
5662 5665 5668 5671 5674 5676 5678 5679 5682 5684 5684 5684 5685 5684 5684 5684 5683 5683 5682 5679 5677 5675 5674 5672 5670 5667 5663 5660 5656 5653 5648 5645 5641 5637 5633 5629 5625 5619 5614 5609 5605 5600 5595
5657 5659 5662 5665 5667 5670 5672 5673 5676 5677 5678 5678 5678 5677 5677 5676 5676 5675 5673 5672 5670 5668 5666 5665 5662 5659 5656 5652 5647 5643 5640 5637 5634 5631 5627 5624 5620 5615 5610 5606 5601 5596 5592
5652 5654 5657 5660 5662 5664 5666 5667 5669 5671 5672 5672 5670 5672 5672 5671 5670 5669 5666 5665 5663 5661 5660 5658 5655 5651 5647 5643 5640 5637 5634 5632 5628 5626 5622 5618 5614 5609 5605 5600 5596 5592 5587
5646 5649 5652 5654 5657 5658 5660 5661 5662 5665 5666 5666 5666 5666 5665 5664 5663 5661 5660 5659 5657 5655 5653 5650 5647 5643 5640 5637 5634 5631 5629 5626 5623 5620 5616 5612 5608 5604 5599 5594 5590 5585 5580
5642 5644 5647 5649 5652 5653 5654 5655 5656 5658 5659 5661 5660 5659 5659 5658 5657 5655 5654 5653 5651 5649 5646 5643 5640 5637 5634 5631 5628 5626 5623 5620 5617 5614 5610 5605 5601 5597 5592 5587 5583 5578 5573
5637 5639 5642 5644 5646 5647 5648 5650 5651 5651 5653 5653 5654 5654 5653 5652 5651 5649 5649 5647 5644 5642 5640 5637 5634 5630 5627 5625 5622 5619 5617 5613 5610 5606 5602 5598 5594 5589 5584 5580 5575 5570 5564
5632 5634 5636 5638 5639 5641 5642 5644 5644 5646 5647 5647 5647 5648 5647 5646 5644 5644 5642 5640 5637 5635 5633 5630 5627 5624 5621 5619 5616 5613 5610 5606 5603 5599 5594 5590 5585 5581 5576 5571 5566 5560 5554
5626 5628 5630 5631 5633 5634 5636 5637 5639 5640 5641 5641 5641 5641 5641 5640 5639 5637 5635 5633 5631 5628 5626 5624 5621 5618 5615 5612 5609 5606 5602 5599 5595 5591 5586 5582 5577 5572 5567 5562 5556 5550 5544
5619 5621 5623 5625 5627 5629 5630 5631 5633 5634 5635 5635 5634 5634 5634 5633 5631 5630 5629 5626 5624 5622 5619 5616 5614 5611 5608 5605 5601 5598 5594 5591 5587 5582 5578 5573 5568 5563 5557 5551 5546 5540 5534
5614 5615 5617 5619 5621 5623 5624 5626 5626 5627 5627 5627 5627 5626 5626 5625 5624 5623 5621 5619 5616 5614 5611 5608 5605 5602 5599 5597 5594 5590 5587 5583 5579 5574 5569 5564 5559 5553 5547 5541 5535 5529 5522